Year,Month,Day,Hour,Minute,Value (Times are PST for temperature in C)
2016,04,19,00,00,13.10
2016,04,19,00,01,13.20
2016,04,19,00,02,13.30
2016,04,19,00,03,13.30
2016,04,19,00,04,13.40
2016,04,19,00,05,13.50
2016,04,19,00,06,13.50
2016,04,19,00,07,13.60
2016,04,19,00,08,13.70
2016,04,19,00,09,13.70
2016,04,19,00,10,13.70
2016,04,19,00,11,13.60
2016,04,19,00,12,13.60
2016,04,19,00,13,13.60
2016,04,19,00,14,13.60
2016,04,19,00,15,13.70
2016,04,19,00,16,13.70
2016,04,19,00,17,13.70
2016,04,19,00,18,13.70
2016,04,19,00,19,13.80
2016,04,19,00,20,13.80
2016,04,19,00,21,13.90
2016,04,19,00,22,14.00
2016,04,19,00,23,14.00
2016,04,19,00,24,14.00
2016,04,19,00,25,14.10
2016,04,19,00,26,14.10
2016,04,19,00,27,14.20
2016,04,19,00,28,14.20
2016,04,19,00,29,14.30
2016,04,19,00,30,14.30
2016,04,19,00,31,14.30
2016,04,19,00,32,14.30
2016,04,19,00,33,14.30
2016,04,19,00,34,14.30
2016,04,19,00,35,14.30
2016,04,19,00,36,14.30
2016,04,19,00,37,14.30
2016,04,19,00,38,14.30
2016,04,19,00,39,14.30
2016,04,19,00,40,14.30
2016,04,19,00,41,14.30
2016,04,19,00,42,14.30
2016,04,19,00,43,14.30
2016,04,19,00,44,14.30
2016,04,19,00,45,14.30
2016,04,19,00,46,14.30
2016,04,19,00,47,14.30
2016,04,19,00,48,14.30
2016,04,19,00,49,14.30
2016,04,19,00,50,14.30
2016,04,19,00,51,14.20
2016,04,19,00,52,14.20
2016,04,19,00,53,14.20
2016,04,19,00,54,14.20
2016,04,19,00,55,14.20
2016,04,19,00,56,14.20
2016,04,19,00,57,14.20
2016,04,19,00,58,14.10
2016,04,19,00,59,14.10
2016,04,19,01,00,14.10
2016,04,19,01,01,14.10
2016,04,19,01,02,14.10
2016,04,19,01,03,14.10
2016,04,19,01,04,14.10
2016,04,19,01,05,14.10
2016,04,19,01,06,14.10
2016,04,19,01,07,14.10
2016,04,19,01,08,14.10
2016,04,19,01,09,14.10
2016,04,19,01,10,14.10
2016,04,19,01,11,14.10
2016,04,19,01,12,14.10
2016,04,19,01,13,14.10
2016,04,19,01,14,14.00
2016,04,19,01,15,14.00
2016,04,19,01,16,14.00
2016,04,19,01,17,14.00
2016,04,19,01,18,14.00
2016,04,19,01,19,13.90
2016,04,19,01,20,13.90
2016,04,19,01,21,13.90
2016,04,19,01,22,13.90
2016,04,19,01,23,13.90
2016,04,19,01,24,13.90
2016,04,19,01,25,13.90
2016,04,19,01,26,13.90
2016,04,19,01,27,13.90
2016,04,19,01,28,13.90
2016,04,19,01,29,13.90
2016,04,19,01,30,13.90
2016,04,19,01,31,13.90
2016,04,19,01,32,13.90
2016,04,19,01,33,13.90
2016,04,19,01,34,13.90
2016,04,19,01,35,13.80
2016,04,19,01,36,13.80
2016,04,19,01,37,13.80
2016,04,19,01,38,13.80
2016,04,19,01,39,13.80
2016,04,19,01,40,13.80
2016,04,19,01,41,13.80
2016,04,19,01,42,13.70
2016,04,19,01,43,13.70
2016,04,19,01,44,13.70
2016,04,19,01,45,13.60
2016,04,19,01,46,13.60
2016,04,19,01,47,13.60
2016,04,19,01,48,13.50
2016,04,19,01,49,13.50
2016,04,19,01,50,13.50
2016,04,19,01,51,13.50
2016,04,19,01,52,13.40
2016,04,19,01,53,13.40
2016,04,19,01,54,13.40
2016,04,19,01,55,13.40
2016,04,19,01,56,13.40
2016,04,19,01,57,13.40
2016,04,19,01,58,13.40
2016,04,19,01,59,13.40
2016,04,19,02,00,13.40
2016,04,19,02,01,13.40
2016,04,19,02,02,13.40
2016,04,19,02,03,13.40
2016,04,19,02,04,13.50
2016,04,19,02,05,13.50
2016,04,19,02,06,13.50
2016,04,19,02,07,13.40
2016,04,19,02,08,13.40
2016,04,19,02,09,13.40
2016,04,19,02,10,13.40
2016,04,19,02,11,13.40
2016,04,19,02,12,13.40
2016,04,19,02,13,13.30
2016,04,19,02,14,13.30
2016,04,19,02,15,13.20
2016,04,19,02,16,13.10
2016,04,19,02,17,13.00
2016,04,19,02,18,12.90
2016,04,19,02,19,12.80
2016,04,19,02,20,12.70
2016,04,19,02,21,12.70
2016,04,19,02,22,12.60
2016,04,19,02,23,12.50
2016,04,19,02,24,12.40
2016,04,19,02,25,12.40
2016,04,19,02,26,12.30
2016,04,19,02,27,12.30
2016,04,19,02,28,12.30
2016,04,19,02,29,12.30
2016,04,19,02,30,12.30
2016,04,19,02,31,12.30
2016,04,19,02,32,12.30
2016,04,19,02,33,12.40
2016,04,19,02,34,12.40
2016,04,19,02,35,12.40
2016,04,19,02,36,12.40
2016,04,19,02,37,12.40
2016,04,19,02,38,12.40
2016,04,19,02,39,12.30
2016,04,19,02,40,12.30
2016,04,19,02,41,12.30
2016,04,19,02,42,12.30
2016,04,19,02,43,12.30
2016,04,19,02,44,12.30
2016,04,19,02,45,12.20
2016,04,19,02,46,12.20
2016,04,19,02,47,12.20
2016,04,19,02,48,12.20
2016,04,19,02,49,12.20
2016,04,19,02,50,12.10
2016,04,19,02,51,12.10
2016,04,19,02,52,12.10
2016,04,19,02,53,12.10
2016,04,19,02,54,12.00
2016,04,19,02,55,12.00
2016,04,19,02,56,12.00
2016,04,19,02,57,11.90
2016,04,19,02,58,11.90
2016,04,19,02,59,11.80
2016,04,19,03,00,11.80
2016,04,19,03,01,11.80
2016,04,19,03,02,11.80
2016,04,19,03,03,11.80
2016,04,19,03,04,11.80
2016,04,19,03,05,11.70
2016,04,19,03,06,11.70
2016,04,19,03,07,11.60
2016,04,19,03,08,11.60
2016,04,19,03,09,11.60
2016,04,19,03,10,11.50
2016,04,19,03,11,11.50
2016,04,19,03,12,11.50
2016,04,19,03,13,11.40
2016,04,19,03,14,11.40
2016,04,19,03,15,11.40
2016,04,19,03,16,11.30
2016,04,19,03,17,11.30
2016,04,19,03,18,11.30
2016,04,19,03,19,11.20
2016,04,19,03,20,11.20
2016,04,19,03,21,11.10
2016,04,19,03,22,11.10
2016,04,19,03,23,11.00
2016,04,19,03,24,11.00
2016,04,19,03,25,11.00
2016,04,19,03,26,10.90
2016,04,19,03,27,10.90
2016,04,19,03,28,10.90
2016,04,19,03,29,10.80
2016,04,19,03,30,10.80
2016,04,19,03,31,10.80
2016,04,19,03,32,10.80
2016,04,19,03,33,10.70
2016,04,19,03,34,10.70
2016,04,19,03,35,10.70
2016,04,19,03,36,10.60
2016,04,19,03,37,10.60
2016,04,19,03,38,10.50
2016,04,19,03,39,10.50
2016,04,19,03,40,10.40
2016,04,19,03,41,10.40
2016,04,19,03,42,10.30
2016,04,19,03,43,10.30
2016,04,19,03,44,10.20
2016,04,19,03,45,10.20
2016,04,19,03,46,10.20
2016,04,19,03,47,10.10
2016,04,19,03,48,10.10
2016,04,19,03,49,10.00
2016,04,19,03,50,10.00
2016,04,19,03,51,10.00
2016,04,19,03,52,9.90
2016,04,19,03,53,9.90
2016,04,19,03,54,9.80
2016,04,19,03,55,9.80
2016,04,19,03,56,9.80
2016,04,19,03,57,9.70
2016,04,19,03,58,9.70
2016,04,19,03,59,9.70
2016,04,19,04,00,9.70
2016,04,19,04,01,9.60
2016,04,19,04,02,9.60
2016,04,19,04,03,9.60
2016,04,19,04,04,9.60
2016,04,19,04,05,9.60
2016,04,19,04,06,9.60
2016,04,19,04,07,9.60
2016,04,19,04,08,9.50
2016,04,19,04,09,9.50
2016,04,19,04,10,9.50
2016,04,19,04,11,9.50
2016,04,19,04,12,9.40
2016,04,19,04,13,9.50
2016,04,19,04,14,9.40
2016,04,19,04,15,9.40
2016,04,19,04,16,9.40
2016,04,19,04,17,9.40
2016,04,19,04,18,9.40
2016,04,19,04,19,9.40
2016,04,19,04,20,9.30
2016,04,19,04,21,9.30
2016,04,19,04,22,9.20
2016,04,19,04,23,9.10
2016,04,19,04,24,9.10
2016,04,19,04,25,9.10
2016,04,19,04,26,9.00
2016,04,19,04,27,9.00
2016,04,19,04,28,9.00
2016,04,19,04,29,8.90
2016,04,19,04,30,8.90
2016,04,19,04,31,8.90
2016,04,19,04,32,8.90
2016,04,19,04,33,8.90
2016,04,19,04,34,9.00
2016,04,19,04,35,8.90
2016,04,19,04,36,9.00
2016,04,19,04,37,9.00
2016,04,19,04,38,8.90
2016,04,19,04,39,8.90
2016,04,19,04,40,8.90
2016,04,19,04,41,8.90
2016,04,19,04,42,8.90
2016,04,19,04,43,8.90
2016,04,19,04,44,8.90
2016,04,19,04,45,8.90
2016,04,19,04,46,8.90
2016,04,19,04,47,8.80
2016,04,19,04,48,8.80
2016,04,19,04,49,8.80
2016,04,19,04,50,8.80
2016,04,19,04,51,8.80
2016,04,19,04,52,8.80
2016,04,19,04,53,8.80
2016,04,19,04,54,8.80
2016,04,19,04,55,8.80
2016,04,19,04,56,8.80
2016,04,19,04,57,8.80
2016,04,19,04,58,8.80
2016,04,19,04,59,8.80
2016,04,19,05,00,8.80
2016,04,19,05,01,8.80
2016,04,19,05,02,8.80
2016,04,19,05,03,8.80
2016,04,19,05,04,8.80
2016,04,19,05,05,8.80
2016,04,19,05,06,8.80
2016,04,19,05,07,8.80
2016,04,19,05,08,8.80
2016,04,19,05,09,8.80
2016,04,19,05,10,8.70
2016,04,19,05,11,8.70
2016,04,19,05,12,8.70
2016,04,19,05,13,8.70
2016,04,19,05,14,8.70
2016,04,19,05,15,8.70
2016,04,19,05,16,8.60
2016,04,19,05,17,8.60
2016,04,19,05,18,8.60
2016,04,19,05,19,8.60
2016,04,19,05,20,8.60
2016,04,19,05,21,8.60
2016,04,19,05,22,8.60
2016,04,19,05,23,8.60
2016,04,19,05,24,8.60
2016,04,19,05,25,8.60
2016,04,19,05,26,8.60
2016,04,19,05,27,8.60
2016,04,19,05,28,8.50
2016,04,19,05,29,8.50
2016,04,19,05,30,8.50
2016,04,19,05,31,8.50
2016,04,19,05,32,8.40
2016,04,19,05,33,8.40
2016,04,19,05,34,8.40
2016,04,19,05,35,8.40
2016,04,19,05,36,8.40
2016,04,19,05,37,8.40
2016,04,19,05,38,8.40
2016,04,19,05,39,8.40
2016,04,19,05,40,8.40
2016,04,19,05,41,8.40
2016,04,19,05,42,8.40
2016,04,19,05,43,8.40
2016,04,19,05,44,8.40
2016,04,19,05,45,8.40
2016,04,19,05,46,8.30
2016,04,19,05,47,8.30
2016,04,19,05,48,8.30
2016,04,19,05,49,8.30
2016,04,19,05,50,8.30
2016,04,19,05,51,8.30
2016,04,19,05,52,8.20
2016,04,19,05,53,8.20
2016,04,19,05,54,8.20
2016,04,19,05,55,8.10
2016,04,19,05,56,8.10
2016,04,19,05,57,8.10
2016,04,19,05,58,8.00
2016,04,19,05,59,8.00
2016,04,19,06,00,7.90
2016,04,19,06,01,7.90
2016,04,19,06,02,7.80
2016,04,19,06,03,7.80
2016,04,19,06,04,7.80
2016,04,19,06,05,7.80
2016,04,19,06,06,7.70
2016,04,19,06,07,7.70
2016,04,19,06,08,7.70
2016,04,19,06,09,7.70
2016,04,19,06,10,7.70
2016,04,19,06,11,7.70
2016,04,19,06,12,7.60
2016,04,19,06,13,7.60
2016,04,19,06,14,7.60
2016,04,19,06,15,7.60
2016,04,19,06,16,7.60
2016,04,19,06,17,7.60
2016,04,19,06,18,7.60
2016,04,19,06,19,7.60
2016,04,19,06,20,7.60
2016,04,19,06,21,7.60
2016,04,19,06,22,7.60
2016,04,19,06,23,7.60
2016,04,19,06,24,7.60
2016,04,19,06,25,7.60
2016,04,19,06,26,7.60
2016,04,19,06,27,7.60
2016,04,19,06,28,7.60
2016,04,19,06,29,7.70
2016,04,19,06,30,7.70
2016,04,19,06,31,7.70
2016,04,19,06,32,7.60
2016,04,19,06,33,7.60
2016,04,19,06,34,7.60
2016,04,19,06,35,7.60
2016,04,19,06,36,7.60
2016,04,19,06,37,7.50
2016,04,19,06,38,7.50
2016,04,19,06,39,7.50
2016,04,19,06,40,7.40
2016,04,19,06,41,7.40
2016,04,19,06,42,7.40
2016,04,19,06,43,7.40
2016,04,19,06,44,7.40
2016,04,19,06,45,7.40
2016,04,19,06,46,7.40
2016,04,19,06,47,7.40
2016,04,19,06,48,7.40
2016,04,19,06,49,7.40
2016,04,19,06,50,7.40
2016,04,19,06,51,7.40
2016,04,19,06,52,7.40
2016,04,19,06,53,7.40
2016,04,19,06,54,7.40
2016,04,19,06,55,7.40
2016,04,19,06,56,7.40
2016,04,19,06,57,7.40
2016,04,19,06,58,7.40
2016,04,19,06,59,7.40
2016,04,19,07,00,7.40
2016,04,19,07,01,7.40
2016,04,19,07,02,7.40
2016,04,19,07,03,7.40
2016,04,19,07,04,7.40
2016,04,19,07,05,7.40
2016,04,19,07,06,7.40
2016,04,19,07,07,7.40
2016,04,19,07,08,7.40
2016,04,19,07,09,7.40
2016,04,19,07,10,7.40
2016,04,19,07,11,7.40
2016,04,19,07,12,7.40
2016,04,19,07,13,7.40
2016,04,19,07,14,7.40
2016,04,19,07,15,7.40
2016,04,19,07,16,7.40
2016,04,19,07,17,7.40
2016,04,19,07,18,7.40
2016,04,19,07,19,7.40
2016,04,19,07,20,7.40
2016,04,19,07,21,7.40
2016,04,19,07,22,7.40
2016,04,19,07,23,7.40
2016,04,19,07,24,7.40
2016,04,19,07,25,7.40
2016,04,19,07,26,7.40
2016,04,19,07,27,7.40
2016,04,19,07,28,7.40
2016,04,19,07,29,7.40
2016,04,19,07,30,7.50
2016,04,19,07,31,7.50
2016,04,19,07,32,7.50
2016,04,19,07,33,7.50
2016,04,19,07,34,7.60
2016,04,19,07,35,7.60
2016,04,19,07,36,7.60
2016,04,19,07,37,7.60
2016,04,19,07,38,7.60
2016,04,19,07,39,7.60
2016,04,19,07,40,7.60
2016,04,19,07,41,7.60
2016,04,19,07,42,7.60
2016,04,19,07,43,7.70
2016,04,19,07,44,7.70
2016,04,19,07,45,7.70
2016,04,19,07,46,7.70
2016,04,19,07,47,7.70
2016,04,19,07,48,7.70
2016,04,19,07,49,7.70
2016,04,19,07,50,7.70
2016,04,19,07,51,7.70
2016,04,19,07,52,7.70
2016,04,19,07,53,7.70
2016,04,19,07,54,7.70
2016,04,19,07,55,7.70
2016,04,19,07,56,7.70
2016,04,19,07,57,7.70
2016,04,19,07,58,7.70
2016,04,19,07,59,7.70
2016,04,19,08,00,7.70
2016,04,19,08,01,7.70
2016,04,19,08,02,7.70
2016,04,19,08,03,7.80
2016,04,19,08,04,7.80
2016,04,19,08,05,7.80
2016,04,19,08,06,7.80
2016,04,19,08,07,7.80
2016,04,19,08,08,7.90
2016,04,19,08,09,7.90
2016,04,19,08,10,7.90
2016,04,19,08,11,8.00
2016,04,19,08,12,8.00
2016,04,19,08,13,8.10
2016,04,19,08,14,8.10
2016,04,19,08,15,8.10
2016,04,19,08,16,8.10
2016,04,19,08,17,8.20
2016,04,19,08,18,8.20
2016,04,19,08,19,8.20
2016,04,19,08,20,8.20
2016,04,19,08,21,8.20
2016,04,19,08,22,8.20
2016,04,19,08,23,8.30
2016,04,19,08,24,8.30
2016,04,19,08,25,8.30
2016,04,19,08,26,8.30
2016,04,19,08,27,8.30
2016,04,19,08,28,8.30
2016,04,19,08,29,8.40
2016,04,19,08,30,8.40
2016,04,19,08,31,8.40
2016,04,19,08,32,8.50
2016,04,19,08,33,8.60
2016,04,19,08,34,8.60
2016,04,19,08,35,8.60
2016,04,19,08,36,8.70
2016,04,19,08,37,8.70
2016,04,19,08,38,8.70
2016,04,19,08,39,8.70
2016,04,19,08,40,8.80
2016,04,19,08,41,8.80
2016,04,19,08,42,8.80
2016,04,19,08,43,8.90
2016,04,19,08,44,8.90
2016,04,19,08,45,9.00
2016,04,19,08,46,9.00
2016,04,19,08,47,9.10
2016,04,19,08,48,9.20
2016,04,19,08,49,9.30
2016,04,19,08,50,9.40
2016,04,19,08,51,9.50
2016,04,19,08,52,9.60
2016,04,19,08,53,9.60
2016,04,19,08,54,9.70
2016,04,19,08,55,9.70
2016,04,19,08,56,9.80
2016,04,19,08,57,9.80
2016,04,19,08,58,9.90
2016,04,19,08,59,9.90
2016,04,19,09,00,10.00
2016,04,19,09,01,10.10
2016,04,19,09,02,10.20
2016,04,19,09,03,10.20
2016,04,19,09,04,10.30
2016,04,19,09,05,10.30
2016,04,19,09,06,10.40
2016,04,19,09,07,10.40
2016,04,19,09,08,10.50
2016,04,19,09,09,10.50
2016,04,19,09,10,10.60
2016,04,19,09,11,10.60
2016,04,19,09,12,10.70
2016,04,19,09,13,10.70
2016,04,19,09,14,10.80
2016,04,19,09,15,10.80
2016,04,19,09,16,10.90
2016,04,19,09,17,10.90
2016,04,19,09,18,11.00
2016,04,19,09,19,11.10
2016,04,19,09,20,11.20
2016,04,19,09,21,11.30
2016,04,19,09,22,11.40
2016,04,19,09,23,11.50
2016,04,19,09,24,11.50
2016,04,19,09,25,11.60
2016,04,19,09,26,11.60
2016,04,19,09,27,11.70
2016,04,19,09,28,11.70
2016,04,19,09,29,11.80
2016,04,19,09,30,11.80
2016,04,19,09,31,11.80
2016,04,19,09,32,11.90
2016,04,19,09,33,11.90
2016,04,19,09,34,11.90
2016,04,19,09,35,11.90
2016,04,19,09,36,12.00
2016,04,19,09,37,12.00
2016,04,19,09,38,12.10
2016,04,19,09,39,12.10
2016,04,19,09,40,12.20
2016,04,19,09,41,12.20
2016,04,19,09,42,12.20
2016,04,19,09,43,12.30
2016,04,19,09,44,12.30
2016,04,19,09,45,12.40
2016,04,19,09,46,12.40
2016,04,19,09,47,12.50
2016,04,19,09,48,12.50
2016,04,19,09,49,12.60
2016,04,19,09,50,12.60
2016,04,19,09,51,12.70
2016,04,19,09,52,12.70
2016,04,19,09,53,12.80
2016,04,19,09,54,12.80
2016,04,19,09,55,12.90
2016,04,19,09,56,12.90
2016,04,19,09,57,13.00
2016,04,19,09,58,13.10
2016,04,19,09,59,13.10
2016,04,19,10,00,13.20
2016,04,19,10,01,13.20
2016,04,19,10,02,13.30
2016,04,19,10,03,13.30
2016,04,19,10,04,13.40
2016,04,19,10,05,13.40
2016,04,19,10,06,13.50
2016,04,19,10,07,13.60
2016,04,19,10,08,13.60
2016,04,19,10,09,13.70
2016,04,19,10,10,13.70
2016,04,19,10,11,13.70
2016,04,19,10,12,13.80
2016,04,19,10,13,13.80
2016,04,19,10,14,13.90
2016,04,19,10,15,14.00
2016,04,19,10,16,14.10
2016,04,19,10,17,14.20
2016,04,19,10,18,14.20
2016,04,19,10,19,14.30
2016,04,19,10,20,14.30
2016,04,19,10,21,14.40
2016,04,19,10,22,14.40
2016,04,19,10,23,14.50
2016,04,19,10,24,14.50
2016,04,19,10,25,14.60
2016,04,19,10,26,14.70
2016,04,19,10,27,14.70
2016,04,19,10,28,14.80
2016,04,19,10,29,14.80
2016,04,19,10,30,14.90
2016,04,19,10,31,14.90
2016,04,19,10,32,15.00
2016,04,19,10,33,15.10
2016,04,19,10,34,15.10
2016,04,19,10,35,15.20
2016,04,19,10,36,15.40
2016,04,19,10,37,15.50
2016,04,19,10,38,15.60
2016,04,19,10,39,15.60
2016,04,19,10,40,15.70
2016,04,19,10,41,15.80
2016,04,19,10,42,15.80
2016,04,19,10,43,15.90
2016,04,19,10,44,16.10
2016,04,19,10,45,16.20
2016,04,19,10,46,16.30
2016,04,19,10,47,16.30
2016,04,19,10,48,16.40
2016,04,19,10,49,16.40
2016,04,19,10,50,16.40
2016,04,19,10,51,16.30
2016,04,19,10,52,16.30
2016,04,19,10,53,16.30
2016,04,19,10,54,16.30
2016,04,19,10,55,16.30
2016,04,19,10,56,16.30
2016,04,19,10,57,16.30
2016,04,19,10,58,16.30
2016,04,19,10,59,16.30
2016,04,19,11,00,16.30
2016,04,19,11,01,16.30
2016,04,19,11,02,16.30
2016,04,19,11,03,16.30
2016,04,19,11,04,16.30
2016,04,19,11,05,16.30
2016,04,19,11,06,16.30
2016,04,19,11,07,16.40
2016,04,19,11,08,16.40
2016,04,19,11,09,16.50
2016,04,19,11,10,16.50
2016,04,19,11,11,16.50
2016,04,19,11,12,16.50
2016,04,19,11,13,16.60
2016,04,19,11,14,16.60
2016,04,19,11,15,16.60
2016,04,19,11,16,16.70
2016,04,19,11,17,16.70
2016,04,19,11,18,16.70
2016,04,19,11,19,16.70
2016,04,19,11,20,16.70
2016,04,19,11,21,16.70
2016,04,19,11,22,16.80
2016,04,19,11,23,16.80
2016,04,19,11,24,16.90
2016,04,19,11,25,16.90
2016,04,19,11,26,16.90
2016,04,19,11,27,16.90
2016,04,19,11,28,16.90
2016,04,19,11,29,17.00
2016,04,19,11,30,17.00
2016,04,19,11,31,17.10
2016,04,19,11,32,17.10
2016,04,19,11,33,17.10
2016,04,19,11,34,17.10
2016,04,19,11,35,17.10
2016,04,19,11,36,17.20
2016,04,19,11,37,17.20
2016,04,19,11,38,17.20
2016,04,19,11,39,17.20
2016,04,19,11,40,17.20
2016,04,19,11,41,17.30
2016,04,19,11,42,17.30
2016,04,19,11,43,17.40
2016,04,19,11,44,17.40
2016,04,19,11,45,17.50
2016,04,19,11,46,17.50
2016,04,19,11,47,17.50
2016,04,19,11,48,17.50
2016,04,19,11,49,17.50
2016,04,19,11,50,17.60
2016,04,19,11,51,17.70
2016,04,19,11,52,17.70
2016,04,19,11,53,17.80
2016,04,19,11,54,17.90
2016,04,19,11,55,18.00
2016,04,19,11,56,18.00
2016,04,19,11,57,18.10
2016,04,19,11,58,18.10
2016,04,19,11,59,18.10
2016,04,19,12,00,18.10
2016,04,19,12,01,18.00
2016,04,19,12,02,18.00
2016,04,19,12,03,18.00
2016,04,19,12,04,18.00
2016,04,19,12,05,18.10
2016,04,19,12,06,18.10
2016,04,19,12,07,18.20
2016,04,19,12,08,18.20
2016,04,19,12,09,18.20
2016,04,19,12,10,18.30
2016,04,19,12,11,18.40
2016,04,19,12,12,18.50
2016,04,19,12,13,18.60
2016,04,19,12,14,18.60
2016,04,19,12,15,18.70
2016,04,19,12,16,18.70
2016,04,19,12,17,18.70
2016,04,19,12,18,18.70
2016,04,19,12,19,18.60
2016,04,19,12,20,18.60
2016,04,19,12,21,18.70
2016,04,19,12,22,18.70
2016,04,19,12,23,18.70
2016,04,19,12,24,18.70
2016,04,19,12,25,18.70
2016,04,19,12,26,18.80
2016,04,19,12,27,18.80
2016,04,19,12,28,18.90
2016,04,19,12,29,18.90
2016,04,19,12,30,19.00
2016,04,19,12,31,19.00
2016,04,19,12,32,19.00
2016,04,19,12,33,19.10
2016,04,19,12,34,19.10
2016,04,19,12,35,19.20
2016,04,19,12,36,19.30
2016,04,19,12,37,19.30
2016,04,19,12,38,19.30
2016,04,19,12,39,19.30
2016,04,19,12,40,19.30
2016,04,19,12,41,19.20
2016,04,19,12,42,19.20
2016,04,19,12,43,19.20
2016,04,19,12,44,19.20
2016,04,19,12,45,19.20
2016,04,19,12,46,19.20
2016,04,19,12,47,19.30
2016,04,19,12,48,19.30
2016,04,19,12,49,19.30
2016,04,19,12,50,19.30
2016,04,19,12,51,19.40
2016,04,19,12,52,19.50
2016,04,19,12,53,19.50
2016,04,19,12,54,19.50
2016,04,19,12,55,19.60
2016,04,19,12,56,19.60
2016,04,19,12,57,19.70
2016,04,19,12,58,19.70
2016,04,19,12,59,19.90
2016,04,19,13,00,20.00
2016,04,19,13,01,20.00
2016,04,19,13,02,20.10
2016,04,19,13,03,20.10
2016,04,19,13,04,20.10
2016,04,19,13,05,20.00
2016,04,19,13,06,20.00
2016,04,19,13,07,20.00
2016,04,19,13,08,20.00
2016,04,19,13,09,20.00
2016,04,19,13,10,20.00
2016,04,19,13,11,20.10
2016,04,19,13,12,20.00
2016,04,19,13,13,20.00
2016,04,19,13,14,20.00
2016,04,19,13,15,20.00
2016,04,19,13,16,19.90
2016,04,19,13,17,19.80
2016,04,19,13,18,19.70
2016,04,19,13,19,19.70
2016,04,19,13,20,19.60
2016,04,19,13,21,19.60
2016,04,19,13,22,19.50
2016,04,19,13,23,19.40
2016,04,19,13,24,19.40
2016,04,19,13,25,19.30
2016,04,19,13,26,19.20
2016,04,19,13,27,19.20
2016,04,19,13,28,19.10
2016,04,19,13,29,19.10
2016,04,19,13,30,19.10
2016,04,19,13,31,19.10
2016,04,19,13,32,19.10
2016,04,19,13,33,19.10
2016,04,19,13,34,19.00
2016,04,19,13,35,18.90
2016,04,19,13,36,18.80
2016,04,19,13,37,18.80
2016,04,19,13,38,18.80
2016,04,19,13,39,18.70
2016,04,19,13,40,18.70
2016,04,19,13,41,18.70
2016,04,19,13,42,18.70
2016,04,19,13,43,18.80
2016,04,19,13,44,18.80
2016,04,19,13,45,18.80
2016,04,19,13,46,18.80
2016,04,19,13,47,18.90
2016,04,19,13,48,19.00
2016,04,19,13,49,19.10
2016,04,19,13,50,19.10
2016,04,19,13,51,19.30
2016,04,19,13,52,19.30
2016,04,19,13,53,19.30
2016,04,19,13,54,19.30
2016,04,19,13,55,19.30
2016,04,19,13,56,19.30
2016,04,19,13,57,19.30
2016,04,19,13,58,19.30
2016,04,19,13,59,19.40
2016,04,19,14,00,19.50
2016,04,19,14,01,19.60
2016,04,19,14,02,19.60
2016,04,19,14,03,19.70
2016,04,19,14,04,19.70
2016,04,19,14,05,19.70
2016,04,19,14,06,19.70
2016,04,19,14,07,19.70
2016,04,19,14,08,19.70
2016,04,19,14,09,19.70
2016,04,19,14,10,19.70
2016,04,19,14,11,19.80
2016,04,19,14,12,19.80
2016,04,19,14,13,19.90
2016,04,19,14,14,20.00
2016,04,19,14,15,20.00
2016,04,19,14,16,20.00
2016,04,19,14,17,19.90
2016,04,19,14,18,19.90
2016,04,19,14,19,19.80
2016,04,19,14,20,19.80
2016,04,19,14,21,19.80
2016,04,19,14,22,19.80
2016,04,19,14,23,19.90
2016,04,19,14,24,19.90
2016,04,19,14,25,20.00
2016,04,19,14,26,20.00
2016,04,19,14,27,20.10
2016,04,19,14,28,20.10
2016,04,19,14,29,20.10
2016,04,19,14,30,20.20
2016,04,19,14,31,20.20
2016,04,19,14,32,20.30
2016,04,19,14,33,20.30
2016,04,19,14,34,20.30
2016,04,19,14,35,20.30
2016,04,19,14,36,20.20
2016,04,19,14,37,20.20
2016,04,19,14,38,20.10
2016,04,19,14,39,20.10
2016,04,19,14,40,20.20
2016,04,19,14,41,20.20
2016,04,19,14,42,20.30
2016,04,19,14,43,20.40
2016,04,19,14,44,20.50
2016,04,19,14,45,20.50
2016,04,19,14,46,20.60
2016,04,19,14,47,20.60
2016,04,19,14,48,20.70
2016,04,19,14,49,20.80
2016,04,19,14,50,20.80
2016,04,19,14,51,20.80
2016,04,19,14,52,20.80
2016,04,19,14,53,20.70
2016,04,19,14,54,20.80
2016,04,19,14,55,20.80
2016,04,19,14,56,20.90
2016,04,19,14,57,21.00
2016,04,19,14,58,21.00
2016,04,19,14,59,21.00
2016,04,19,15,00,21.00
2016,04,19,15,01,21.00
2016,04,19,15,02,20.90
2016,04,19,15,03,21.00
2016,04,19,15,04,21.00
2016,04,19,15,05,21.00
2016,04,19,15,06,21.10
2016,04,19,15,07,21.10
2016,04,19,15,08,21.10
2016,04,19,15,09,21.20
2016,04,19,15,10,21.20
2016,04,19,15,11,21.30
2016,04,19,15,12,21.50
2016,04,19,15,13,21.60
2016,04,19,15,14,21.80
2016,04,19,15,15,21.90
2016,04,19,15,16,21.90
2016,04,19,15,17,22.00
2016,04,19,15,18,22.00
2016,04,19,15,19,22.00
2016,04,19,15,20,21.90
2016,04,19,15,21,21.80
2016,04,19,15,22,21.80
2016,04,19,15,23,21.70
2016,04,19,15,24,21.70
2016,04,19,15,25,21.80
2016,04,19,15,26,21.80
2016,04,19,15,27,21.90
2016,04,19,15,28,21.90
2016,04,19,15,29,22.00
2016,04,19,15,30,22.10
2016,04,19,15,31,22.20
2016,04,19,15,32,22.20
2016,04,19,15,33,22.20
2016,04,19,15,34,22.10
2016,04,19,15,35,22.00
2016,04,19,15,36,21.90
2016,04,19,15,37,21.90
2016,04,19,15,38,21.90
2016,04,19,15,39,21.90
2016,04,19,15,40,22.00
2016,04,19,15,41,22.10
2016,04,19,15,42,22.20
2016,04,19,15,43,22.30
2016,04,19,15,44,22.30
2016,04,19,15,45,22.50
2016,04,19,15,46,22.60
2016,04,19,15,47,22.70
2016,04,19,15,48,22.80
2016,04,19,15,49,22.80
2016,04,19,15,50,22.90
2016,04,19,15,51,22.90
2016,04,19,15,52,23.00
2016,04,19,15,53,23.00
2016,04,19,15,54,23.10
2016,04,19,15,55,23.10
2016,04,19,15,56,23.20
2016,04,19,15,57,23.20
2016,04,19,15,58,23.20
2016,04,19,15,59,23.20
2016,04,19,16,00,23.30
2016,04,19,16,01,23.30
2016,04,19,16,02,23.20
2016,04,19,16,03,23.10
2016,04,19,16,04,23.10
2016,04,19,16,05,23.10
2016,04,19,16,06,23.10
2016,04,19,16,07,23.00
2016,04,19,16,08,23.00
2016,04,19,16,09,22.90
2016,04,19,16,10,22.90
2016,04,19,16,11,22.80
2016,04,19,16,12,22.80
2016,04,19,16,13,22.80
2016,04,19,16,14,22.80
2016,04,19,16,15,22.80
2016,04,19,16,16,22.70
2016,04,19,16,17,22.70
2016,04,19,16,18,22.60
2016,04,19,16,19,22.60
2016,04,19,16,20,22.60
2016,04,19,16,21,22.70
2016,04,19,16,22,22.70
2016,04,19,16,23,22.70
2016,04,19,16,24,22.70
2016,04,19,16,25,22.70
2016,04,19,16,26,22.70
2016,04,19,16,27,22.70
2016,04,19,16,28,22.70
2016,04,19,16,29,22.80
2016,04,19,16,30,22.80
2016,04,19,16,31,22.80
2016,04,19,16,32,22.90
2016,04,19,16,33,22.90
2016,04,19,16,34,22.90
2016,04,19,16,35,22.90
2016,04,19,16,36,22.90
2016,04,19,16,37,23.00
2016,04,19,16,38,23.00
2016,04,19,16,39,23.00
2016,04,19,16,40,23.00
2016,04,19,16,41,22.90
2016,04,19,16,42,22.90
2016,04,19,16,43,22.90
2016,04,19,16,44,22.80
2016,04,19,16,45,22.80
2016,04,19,16,46,22.70
2016,04,19,16,47,22.60
2016,04,19,16,48,22.60
2016,04,19,16,49,22.40
2016,04,19,16,50,22.30
2016,04,19,16,51,22.20
2016,04,19,16,52,22.20
2016,04,19,16,53,22.20
2016,04,19,16,54,22.20
2016,04,19,16,55,22.30
2016,04,19,16,56,22.30
2016,04,19,16,57,22.30
2016,04,19,16,58,22.30
2016,04,19,16,59,22.30
2016,04,19,17,00,22.20
2016,04,19,17,01,22.20
2016,04,19,17,02,22.10
2016,04,19,17,03,22.10
2016,04,19,17,04,22.00
2016,04,19,17,05,21.90
2016,04,19,17,06,21.80
2016,04,19,17,07,21.80
2016,04,19,17,08,21.70
2016,04,19,17,09,21.70
2016,04,19,17,10,21.70
2016,04,19,17,11,21.70
2016,04,19,17,12,21.70
2016,04,19,17,13,21.80
2016,04,19,17,14,21.80
2016,04,19,17,15,21.80
2016,04,19,17,16,21.80
2016,04,19,17,17,21.70
2016,04,19,17,18,21.60
2016,04,19,17,19,21.60
2016,04,19,17,20,21.60
2016,04,19,17,21,21.70
2016,04,19,17,22,21.70
2016,04,19,17,23,21.70
2016,04,19,17,24,21.70
2016,04,19,17,25,21.70
2016,04,19,17,26,21.70
2016,04,19,17,27,21.70
2016,04,19,17,28,21.70
2016,04,19,17,29,21.70
2016,04,19,17,30,21.60
2016,04,19,17,31,21.60
2016,04,19,17,32,21.60